Current Version              Previous Version:    01  02  03  04  05  06  07  08  09  10  11  12  13  14  15  16  17  18  19  20  21  22  23  24  25  26  27  28  29  30  
   31  32  33  34  35  36  37  38  39  40  41  42  43  44  45  46  47  48  49  50  51  52  53  54  55  56  57  58  59  60  

[Printable]
178
ASUS44 KFWD 232215
RWRTX
NORTH TEXAS HOURLY WEATHER ROUNDUP
NATIONAL WEATHER SERVICE FORT WORTH TX
500 PM CDT WED APR 23 2014

NOTE: "FAIR" INDICATES FEW OR NO CLOUDS BELOW 12,000 FEET WITH NO
SIGNIFICANT WEATHER AND/OR OBSTRUCTIONS TO VISIBILITY.

TXZ118-119-232300-
DALLAS/FORT WORTH METROPLEX

CITY           SKY/WX    TMP DP  RH WIND       PRES   REMARKS
DFW AIRPORT    PTSUNNY   85  58  39 S20G26    29.76F
DALLAS LOVE    PTSUNNY   84  58  40 SE17G26   29.77F
FTW MEACHAM    SUNNY     85  59  41 SE20G32   29.75F
DAL-EXECUTIVE  MOSUNNY   86  58  38 SE16G24   29.77F
FTW-ALLIANCE   PTSUNNY   83  60  45 SE15G26   29.75F
FTW-NAS-JRB    PTSUNNY   88  52  29 S14G21    29.79F
ARLINGTON      SUNNY     85  57  38 S17G29    29.76F
MESQUITE       SUNNY     84  59  42 S17       29.79F
LANCASTER      SUNNY     84  59  43 S14G24    29.80F
$$

TXZ091>094-102>105-117-120-121-131>134-232300-
NORTH CENTRAL TEXAS

CITY           SKY/WX    TMP DP  RH WIND       PRES   REMARKS
SHRMAN/DENISON MOSUNNY   83  57  41 SE16G23   29.79F
GAINESVILLE    SUNNY     83  60  45 SE20      29.78F
BOWIE          MOSUNNY   84  57  39 SE15G22   29.74F
BRIDGEPORT     MOSUNNY   85  52  32 SE17      29.75F
DECATUR        SUNNY     83  53  35 SE16G23   29.76F
DENTON         MOSUNNY   84  60  44 S16       29.76F
MCKINNEY       MOSUNNY   84  61  45 SE18G26   29.78F
GREENVILLE     MOSUNNY   82  57  42 SE13      29.82F
ROCKWALL       MOSUNNY   85  61  45 SE14G25   29.79F
TERRELL        MOSUNNY   84  62  47 SE13      29.81F
WAXAHACHIE     SUNNY     83  56  39 S13G20    29.80F
CLEBURNE       SUNNY     86  57  37 S13       29.79F
GRANBURY       SUNNY     89  55  31 S16G22    29.75F
$$

TXZ083>090-098>101-113>116-127>130-139>142-154-155-232300-
WESTERN NORTH TEXAS

CITY           SKY/WX    TMP DP  RH WIND       PRES   REMARKS
WICHITA FALLS  PTSUNNY   85  57  38 S22G28    29.67F
WF-KICKAPOO    PTSUNNY   86  54  33 SE15G25   29.69F
VERNON         PTSUNNY   88  55  31 SE21G30   29.63F
ABILENE        PTSUNNY   90  55  30 S24G33    29.68F
ABILENE-DYESS  MOSUNNY   91  55  28 S22G35    29.66F
BRECKENRIDGE   MOSUNNY   91  52  25 S20G30    29.67F
GRAHAM         MOSUNNY   89  54  30 SE18G26   29.67F
MINERAL WELLS  SUNNY     88  56  33 S15       29.72F
STEPHENVILLE   MOSUNNY   87  54  32 S14G22    29.78F
COMANCHE       MOSUNNY   88  55  31 S14G20    29.74F
BROWNWOOD      MOSUNNY   90  55  31 S17G28    29.71F
COLEMAN        MOSUNNY   91  53  27 S16G25    29.70F
BRADY          SUNNY     90  57  33 SE13      29.73F
$$

TXZ143>147-156>162-174-175-232300-
CENTRAL TEXAS

CITY           SKY/WX    TMP DP  RH WIND       PRES   REMARKS
WACO           SUNNY     85  57  38 S15G25    29.78F
WACO-TSTC      SUNNY     86  63  45 SE14G20   29.78F
WACO-MCGREGOR  SUNNY     88  55  33 SE18      29.79F
HILLSBORO      SUNNY     86  57  37 SE15G21   29.78F
CORSICANA      MOSUNNY   85  61  44 S17       29.81F
MEXIA          SUNNY     82  60  47 SE10      29.80F
HEARNE         MOSUNNY   84  62  46 SE9       29.81F
CAMERON        PTSUNNY   86  61  42 SE12G17   29.79F
TEMPLE         MOSUNNY   86  57  37 S18       29.81F
KILLEEN        MOSUNNY   84  61  45 SE18G29   29.77F
KILLEEN-SKYLRK SUNNY     84  61  45 SE14G28   29.77F
FORT HOOD      MOSUNNY   87  60  40 SE18      29.76F
GATESVILLE     MOSUNNY   86  61  42 SE13G20   29.78F
HAMILTON       MOSUNNY   89  55  31 SE20G26   29.77F
LAMPASAS       MOSUNNY   88  63  42 SE16G22   29.76F
$$

TXZ095>097-106>112-122>126-135>138-148>153-164>167-232300-
EAST TEXAS

CITY           SKY/WX    TMP DP  RH WIND       PRES   REMARKS
PARIS          SUNNY     81  61  50 SE12      29.83F
SULPHUR SPRNGS MOSUNNY   83  56  39 SE9G18    29.84F
CLARKSVILLE    SUNNY     83  56  38 SE9       29.83F
MOUNT PLEASANT SUNNY     82  55  39 SE9       29.85S
GILMER         MOSUNNY   84  57  39 SE9       29.85F
MINEOLA        MOSUNNY   82  57  42 SE6       29.84F
TYLER          MOSUNNY   83  56  39 SE9       29.83F
LONGVIEW       SUNNY     84  56  38 S10       29.84F
MARSHALL       SUNNY     82  56  40 SE7       29.87F
ATHENS         MOSUNNY   82  59  44 SE10G18   29.81F
PALESTINE      MOSUNNY   84  58  41 E7        29.84F
JACKSONVILLE   MOSUNNY   82  53  35 SE8       29.86F
HENDERSON      SUNNY     83  50  31 SE13      29.85F
NACOGDOCHES    MOSUNNY   82  59  44 SE10      29.85F
LUFKIN         CLOUDY    88  62  41 SE10G18   29.84F
$$

SUPPLEMENTAL OBSERVATIONS (CENTRAL)

CITY           SKY/WX    TMP DP  RH WIND       PRES   REMARKS
LAKE TEXOMA      N/A     81  54  39 S10         N/A
PAT MAYSE LAKE   N/A     81  57  44 SE14        N/A
ATHENS           N/A     84  59  42 S10         N/A
LAKE LIMESTONE   N/A     84  59  42 S10G20      N/A
MCGREGOR         N/A     86  57  37 S17G25      N/A
TEMPLE           N/A     84  57  39 SE16G24     N/A
$$

SUPPLEMENTAL OBSERVATIONS (WEST)

CITY           SKY/WX    TMP DP  RH WIND       PRES   REMARKS
MILLERS CREEK    N/A     90  52  27 S20G28      N/A
GRANBURY         N/A     88  55  33 SE18G26     N/A
COMANCHE         N/A     88  55  33 S18G25      N/A
HAMBY            N/A     91  55  29 S22         N/A
IVIE RESERVOIR   N/A     93  54  26 S17G26      N/A  HX  91
COLORADO BEND    N/A     88  57  35 SE15G24     N/A
$$

SUPPLEMENTAL OBSERVATIONS (EAST)

CITY           SKY/WX    TMP DP  RH WIND       PRES   REMARKS
TEXARKANA        N/A     84  54  34 S3          N/A
LINDEN           N/A     82  57  42 SE6         N/A
CADDO LAKE       N/A     86  55  35 S5          N/A
HENDERSON        N/A     82  55  39 S9          N/A
LUFKIN           N/A     84  61  45 MISG        N/A
N SABINE NF      N/A     86  57  37 MISG        N/A
$$

SUPPLEMENTAL OBSERVATIONS ARE A COLLECTION OF AUTOMATED INSTRUMENTS
THAT ARE MAINTAINED BY A VARIETY OF FEDERAL AND STATE AGENCIES.
CERTAIN ELEMENTS...SUCH AS HUMIDITY VALUES AND SUSTAINED WIND
SPEEDS...MAY BE APPROXIMATED.